Location: G�nzburg
(48.4565°N, 10.3217°E)
Time: 09:28:13
(UTC+01:00)

ISS - Pass Details

Date: 17 November 2017
Orbit: 401 x 407 km, 51.6° (Epoch: 18 November)

Event Time Altitude Azimuth Distance (km) Brightness Sun altitude
Exits shadow 04:48:30 15° 137° (SE) 1,189 -1.0 -26.5°
Drops below altitude 10° 04:49:09 10° 134° (SE) 1,450 -0.5 -26.4°
Sets 04:51:15 0° 128° (SE) 2,306 0.8 -26.0°
